Flag for Vietnam Weather past 2 weeks in Ho Chi Minh, Vietnam

Now
86 °F

Scattered clouds.


Feels Like: 92 °F
Forecast: 74 / 86 °F
Wind: 16 mph from West

Location: Ho Chi Minh

Current Time: Jul 23, 2014 at 1:25:25 PM

Latest Report: Jul 23, 2014 at 12:30 PM


Visibility: N/A

Pressure: 29.74 "Hg

Humidity: 62%

Dew point: 72 °F

Location of Ho Chi MinhLocation

Historic Weather in Ho Chi Minh — Graph

°F

Ho Chi Minh temperature yesterday

Maximum temperature yesterday: 84 °F (at 10:30 AM)
Minimum temperature yesterday: 73 °F (at 3:00 AM)
Average temperature yesterday: 78 °F

Past Weeks' High & Low Weather Summary

 TemperatureHumidityPressure
High91 °F (Jul 11, 12:30 PM)100% (Jul 8, 12:00 PM)29.86 "Hg (Jul 8, 12:00 PM)
Low73 °F (Jul 13, 2:30 AM)52% (Jul 11, 3:00 PM)29.59 "Hg (Jul 8, 3:00 PM)
Average81 °F90%29.75 "Hg
* Reported Jul 8 12:00 Noon — Jul 23 12:00 Noon, Ho Chi Minh, Weather by CustomWeather, © 2014

Note: Actual official high and low records may vary slightly from our data, if they occured in-between our weather recording intervals... More about our weather records

Advertising

Ho Chi Minh weather history for previous 24 hours

 ConditionsComfort  
Time TempWeatherWind HumidityBarometerVisibility
12:00 PM
Jul 23
86 °FScattered clouds.18 mph66%29.74 "HgN/A
11:30 AM84 °FScattered clouds.20 mph70%29.74 "HgN/A
11:00 AM86 °FPassing clouds.13 mph66%29.74 "HgN/A
10:30 AM84 °FScattered clouds.16 mph74%29.74 "HgN/A
10:00 AM82 °FScattered clouds.17 mph84%29.77 "HgN/A
9:30 AM82 °FBroken clouds.20 mph89%29.80 "HgN/A
9:00 AM81 °FPartly sunny.16 mph100%29.80 "HgN/A
8:30 AM81 °FBroken clouds.14 mph100%29.77 "HgN/A
8:00 AM81 °FPartly sunny.12 mph100%29.77 "HgN/A
7:30 AM77 °FPartly sunny.7 mph100%29.77 "HgN/A
7:00 AM75 °FPartly sunny.3 mph100%29.74 "Hg5 mi
6:00 AM75 °FPartly sunny.1 mph100%29.74 "Hg4 mi
12:00 AM75 °FLight rain. Overcast.8 mph100%29.80 "Hg5 mi
11:30 PM
Jul 22
75 °FLight rain. Overcast.6 mph100%29.80 "Hg5 mi
11:00 PM77 °FOvercast.7 mph100%29.80 "HgN/A
10:30 PM75 °FOvercast.6 mph100%29.80 "HgN/A
10:00 PM77 °FOvercast.6 mph100%29.80 "HgN/A
9:30 PM77 °FOvercast.6 mph100%29.77 "HgN/A
9:00 PM77 °FOvercast.6 mph100%29.77 "HgN/A
8:30 PM77 °FOvercast.12 mph100%29.77 "HgN/A
8:00 PM77 °FOvercast.15 mph100%29.74 "HgN/A
7:30 PM77 °FPartly cloudy.14 mph100%29.74 "Hg5 mi
7:00 PM77 °FSprinkles. Partly cloudy.13 mph100%29.74 "Hg4 mi
6:30 PM79 °FPartly cloudy.14 mph100%29.71 "Hg5 mi
6:00 PM81 °FLight rain. Cloudy.12 mph100%29.71 "HgN/A
5:30 PM81 °FLight rain. Cloudy.12 mph100%29.71 "HgN/A
5:00 PM79 °FLight rain. Cloudy.14 mph100%29.68 "HgN/A
4:30 PM79 °FLight rain. Cloudy.13 mph100%29.68 "Hg5 mi
4:00 PM81 °FLight rain. Cloudy.13 mph100%29.68 "HgN/A
3:30 PM81 °FCloudy.15 mph94%29.68 "HgN/A
3:00 PM81 °FBroken clouds.9 mph100%29.68 "HgN/A
2:30 PM79 °FBroken clouds.12 mph100%29.68 "HgN/A
2:00 PM77 °FThunderstorms. Broken clouds.10 mph100%29.68 "Hg3 mi
1:30 PM77 °FThunderstorms. Broken clouds.14 mph100%29.71 "Hg1 mi
1:00 PM81 °FRain showers. Broken clouds.2 mph100%29.71 "Hg3 mi
Weather by CustomWeather, © 2014

See weather overviewHow to use our weather pages